• In Deutschland
  • Länderverzeichnis
  • Für 7 Tage
  • Wassertemperatur
  • Satellitenkarten
  • Wetterkarte
  • Widgets
  • user-avatar
    Anmelden

    Stündliche Wetter Zatorze

    Heute, 16 August, Donnerstag

    Zeit Temperatur Niederschläge Wind Luftdruck Luftfeuchtigkeit
    00:00 +16°C° 0 mm 2 m/S 751 mmHg 96%
    01:00 +15°C° 0 mm 2 m/S 751 mmHg 97%
    02:00 +15°C° 0 mm 2 m/S 751 mmHg 97%
    03:00 +15°C° 0 mm 1 m/S 751 mmHg 97%
    04:00 +14°C° 0 mm 1 m/S 752 mmHg 97%
    05:00 +16°C° 0 mm 1 m/S 752 mmHg 93%
    06:00 +18°C° 0 mm 1 m/S 752 mmHg 89%
    07:00 +19°C° 0 mm 1 m/S 752 mmHg 85%
    08:00 +21°C° 0 mm 1 m/S 752 mmHg 78%
    09:00 +22°C° 0 mm 1 m/S 753 mmHg 71%
    10:00 +23°C° 0 mm 1 m/S 753 mmHg 65%
    11:00 +24°C° 0 mm 1 m/S 752 mmHg 62%
    12:00 +25°C° 0 mm 1 m/S 752 mmHg 58%
    13:00 +25°C° 0 mm 1 m/S 752 mmHg 55%
    14:00 +25°C° 0 mm 1 m/S 752 mmHg 56%
    15:00 +25°C° 0 mm 1 m/S 752 mmHg 56%
    16:00 +25°C° 0 mm 1 m/S 752 mmHg 57%
    17:00 +24°C° 0 mm 1 m/S 752 mmHg 62%
    18:00 +23°C° 0 mm 1 m/S 752 mmHg 68%
    19:00 +21°C° 0 mm 1 m/S 751 mmHg 73%
    20:00 +21°C° 0 mm 1 m/S 752 mmHg 76%
    21:00 +20°C° 0 mm 1 m/S 752 mmHg 78%
    22:00 +19°C° 0 mm 1 m/S 752 mmHg 81%
    23:00 +19°C° 0 mm 1 m/S 752 mmHg 84%

    Morgen, 17 August, Freitag

    Zeit Temperatur Niederschläge Wind Luftdruck Luftfeuchtigkeit
    00:00 +18°C° 0 mm 1 m/S 752 mmHg 86%
    01:00 +18°C° 0 mm 1 m/S 752 mmHg 88%
    02:00 +16°C° 0 mm 1 m/S 752 mmHg 90%
    03:00 +16°C° 0 mm 1 m/S 752 mmHg 91%
    04:00 +16°C° 0 mm 1 m/S 752 mmHg 92%
    05:00 +17°C° 0 mm 2 m/S 752 mmHg 88%
    06:00 +18°C° 0 mm 2 m/S 752 mmHg 83%
    07:00 +20°C° 0 mm 2 m/S 752 mmHg 79%
    08:00 +21°C° 0 mm 2 m/S 752 mmHg 73%
    09:00 +24°C° 0 mm 2 m/S 752 mmHg 66%
    10:00 +25°C° 0 mm 2 m/S 752 mmHg 60%
    11:00 +25°C° 0 mm 2 m/S 752 mmHg 58%
    12:00 +26°C° 0 mm 2 m/S 751 mmHg 57%
    13:00 +26°C° 0 mm 2 m/S 751 mmHg 55%
    14:00 +26°C° 0 mm 2 m/S 751 mmHg 55%
    15:00 +27°C° 0 mm 2 m/S 751 mmHg 54%
    16:00 +27°C° 0 mm 2 m/S 750 mmHg 54%
    17:00 +25°C° 0 mm 2 m/S 750 mmHg 60%
    18:00 +23°C° 0 mm 2 m/S 750 mmHg 66%
    19:00 +22°C° 0 mm 1 m/S 750 mmHg 72%
    20:00 +21°C° 0 mm 1 m/S 750 mmHg 75%
    21:00 +20°C° 0 mm 1 m/S 750 mmHg 79%
    22:00 +19°C° 0 mm 1 m/S 750 mmHg 82%
    23:00 +19°C° 0 mm 1 m/S 750 mmHg 84%

    übermorgen, 18 August, Samstag

    Zeit Temperatur Niederschläge Wind Luftdruck Luftfeuchtigkeit
    00:00 +19°C° 0 mm 1 m/S 750 mmHg 86%
    01:00 +18°C° 0 mm 1 m/S 750 mmHg 88%
    02:00 +18°C° 0 mm 1 m/S 750 mmHg 88%
    03:00 +18°C° 0 mm 1 m/S 750 mmHg 89%
    04:00 +18°C° 0 mm 1 m/S 750 mmHg 90%
    05:00 +19°C° 0 mm 1 m/S 751 mmHg 85%
    06:00 +21°C° 0 mm 1 m/S 751 mmHg 80%
    07:00 +22°C° 0 mm 1 m/S 751 mmHg 75%
    08:00 +24°C° 0 mm 1 m/S 751 mmHg 68%
    09:00 +26°C° 0 mm 1 m/S 751 mmHg 61%
    10:00 +25°C° 0 mm 0 m/S 751 mmHg 54%
    11:00 +28°C° 0 mm 1 m/S 751 mmHg 51%
    12:00 +28°C° 0 mm 1 m/S 751 mmHg 49%
    13:00 +28°C° 0 mm 1 m/S 750 mmHg 47%
    14:00 +28°C° 0 mm 1 m/S 750 mmHg 50%
    15:00 +28°C° 0 mm 1 m/S 750 mmHg 53%
    16:00 +27°C° 0 mm 1 m/S 750 mmHg 56%
    17:00 +26°C° 0,1 mm 1 m/S 750 mmHg 60%
    18:00 +24°C° 0,1 mm 1 m/S 750 mmHg 65%
    19:00 +23°C° 0,1 mm 1 m/S 750 mmHg 70%
    20:00 +22°C° 0,4 mm 1 m/S 751 mmHg 74%
    21:00 +21°C° 0,4 mm 1 m/S 751 mmHg 77%
    22:00 +20°C° 0,4 mm 1 m/S 751 mmHg 81%
    23:00 +20°C° 0,4 mm 1 m/S 751 mmHg 85%

    19 August, Sonntag

    Zeit Temperatur Niederschläge Wind Luftdruck Luftfeuchtigkeit
    00:00 +18°C° 0,4 mm 2 m/S 751 mmHg 88%
    01:00 +18°C° 0,4 mm 2 m/S 751 mmHg 92%
    02:00 +17°C° 0,1 mm 2 m/S 751 mmHg 93%
    03:00 +17°C° 0,1 mm 2 m/S 752 mmHg 95%
    04:00 +16°C° 0,1 mm 2 m/S 752 mmHg 96%
    05:00 +17°C° 0 mm 2 m/S 752 mmHg 92%
    06:00 +18°C° 0 mm 3 m/S 752 mmHg 87%
    07:00 +19°C° 0 mm 3 m/S 752 mmHg 83%
    08:00 +20°C° 0 mm 3 m/S 752 mmHg 75%
    09:00 +21°C° 0 mm 3 m/S 752 mmHg 67%
    10:00 +22°C° 0 mm 3 m/S 753 mmHg 58%
    11:00 +24°C° 0 mm 3 m/S 753 mmHg 57%
    12:00 +23°C° 0 mm 4 m/S 752 mmHg 56%
    13:00 +25°C° 0 mm 4 m/S 752 mmHg 54%
    14:00 +25°C° 0 mm 4 m/S 752 mmHg 57%
    15:00 +24°C° 0 mm 3 m/S 752 mmHg 60%
    16:00 +24°C° 0 mm 3 m/S 752 mmHg 62%
    17:00 +22°C° 0 mm 3 m/S 752 mmHg 68%
    18:00 +21°C° 0 mm 2 m/S 752 mmHg 74%
    19:00 +20°C° 0 mm 1 m/S 752 mmHg 80%
    20:00 +19°C° 0 mm 1 m/S 752 mmHg 83%
    21:00 +19°C° 0 mm 1 m/S 753 mmHg 86%
    22:00 +18°C° 0 mm 1 m/S 753 mmHg 89%
    23:00 +18°C° 0 mm 1 m/S 753 mmHg 90%

    20 August, Montag

    Zeit Temperatur Niederschläge Wind Luftdruck Luftfeuchtigkeit
    00:00 +16°C° 0 mm 1 m/S 752 mmHg 91%
    01:00 +16°C° 0 mm 1 m/S 752 mmHg 93%
    02:00 +16°C° 0 mm 1 m/S 752 mmHg 93%
    03:00 +14°C° 0 mm 0 m/S 752 mmHg 93%
    04:00 +14°C° 0 mm 0 m/S 752 mmHg 93%
    05:00 +18°C° 0 mm 1 m/S 752 mmHg 88%
    06:00 +19°C° 0 mm 1 m/S 752 mmHg 83%
    07:00 +20°C° 0 mm 1 m/S 752 mmHg 78%
    08:00 +21°C° 0 mm 2 m/S 752 mmHg 72%
    09:00 +24°C° 0 mm 2 m/S 752 mmHg 66%
    10:00 +25°C° 0 mm 2 m/S 752 mmHg 60%
    11:00 +26°C° 0 mm 3 m/S 752 mmHg 57%
    12:00 +27°C° 0 mm 3 m/S 751 mmHg 54%
    13:00 +28°C° 0 mm 3 m/S 751 mmHg 51%
    14:00 +28°C° 0 mm 3 m/S 751 mmHg 52%
    15:00 +28°C° 0 mm 3 m/S 750 mmHg 52%
    16:00 +28°C° 0 mm 3 m/S 750 mmHg 53%
    17:00 +26°C° 0 mm 3 m/S 750 mmHg 58%
    18:00 +25°C° 0 mm 2 m/S 750 mmHg 63%
    19:00 +23°C° 0 mm 2 m/S 750 mmHg 67%
    20:00 +23°C° 0 mm 2 m/S 750 mmHg 67%
    21:00 +21°C° 0 mm 3 m/S 750 mmHg 67%
    22:00 +21°C° 0 mm 3 m/S 750 mmHg 67%
    23:00 +21°C° 0 mm 3 m/S 750 mmHg 66%

    21 August, Dienstag

    Zeit Temperatur Niederschläge Wind Luftdruck Luftfeuchtigkeit
    00:00 +21°C° 0 mm 3 m/S 749 mmHg 66%
    01:00 +21°C° 0 mm 3 m/S 749 mmHg 66%
    02:00 +20°C° 0 mm 3 m/S 749 mmHg 69%
    03:00 +20°C° 0 mm 3 m/S 749 mmHg 71%
    04:00 +19°C° 0 mm 2 m/S 749 mmHg 74%
    05:00 +20°C° 0 mm 3 m/S 749 mmHg 74%
    06:00 +21°C° 0 mm 3 m/S 750 mmHg 73%
    07:00 +22°C° 0 mm 3 m/S 750 mmHg 73%
    08:00 +24°C° 0 mm 3 m/S 750 mmHg 68%
    09:00 +25°C° 0 mm 3 m/S 750 mmHg 64%
    10:00 +27°C° 0 mm 4 m/S 750 mmHg 60%
    11:00 +27°C° 0,1 mm 4 m/S 750 mmHg 60%
    12:00 +27°C° 0,1 mm 4 m/S 749 mmHg 60%
    13:00 +27°C° 0,1 mm 4 m/S 749 mmHg 60%
    14:00 +27°C° 0,1 mm 4 m/S 749 mmHg 62%
    15:00 +26°C° 0,1 mm 4 m/S 749 mmHg 63%
    16:00 +26°C° 0,1 mm 3 m/S 749 mmHg 65%
    17:00 +25°C° 0,1 mm 3 m/S 749 mmHg 69%
    18:00 +24°C° 0,1 mm 2 m/S 749 mmHg 73%
    19:00 +22°C° 0,1 mm 1 m/S 749 mmHg 77%
    20:00 +22°C° 0 mm 1 m/S 749 mmHg 79%
    21:00 +21°C° 0 mm 1 m/S 749 mmHg 80%
    22:00 +21°C° 0 mm 1 m/S 749 mmHg 81%
    23:00 +20°C° 0 mm 1 m/S 749 mmHg 82%
    Mehr zeigen